K7FED Weather Reports


time (UTC)temp
C
wind
direction
speed
KPH
gust
KPH
rain 1hr
cm
rain 24hr
cm
rain mn
cm
humidity
%
barometer
mb
20260902034200 18 0 3.2 9.7 0.00 0.00 0.00 59 1015.0
20260902033657 18 341 3.2 8.0 0.00 0.00 0.00 58 1014.9
20260902032657 18 312 3.2 11.3 0.00 0.00 0.00 58 1014.7
20260902032156 19 176 3.2 14.5 0.00 0.00 0.00 58 1014.6
20260902031701 19 319 4.8 14.5 0.00 0.00 0.00 58 1014.6
20260902031201 19 329 3.2 11.3 0.00 0.00 0.00 57 1014.5
20260902030658 19 314 3.2 12.9 0.00 0.00 0.00 57 1014.4
20260902030202 19 322 3.2 12.9 0.00 0.00 0.00 57 1014.4
20260902025657 19 319 3.2 11.3 0.00 0.00 0.00 57 1014.3
20260902025201 19 326 4.8 12.9 0.00 0.00 0.00 57 1014.3
20260902024158 20 3 4.8 12.9 0.00 0.00 0.00 55 1014.1
20260902023652 20 332 4.8 12.9 0.00 0.00 0.00 55 1014.1
20260902023151 20 96 3.2 12.9 0.00 0.00 0.00 54 1014.0
20260902022652 20 327 3.2 12.9 0.00 0.00 0.00 54 1014.0
20260902022147 20 328 4.8 12.9 0.00 0.00 0.00 54 1014.0
20260902021646 20 0 4.8 12.9 0.00 0.00 0.00 53 1013.9
20260902021147 20 273 4.8 14.5 0.00 0.00 0.00 53 1013.8
20260902020644 20 324 4.8 14.5 0.00 0.00 0.00 53 1013.8
20260902020144 21 299 4.8 9.7 0.00 0.00 0.00 52 1013.7
20260902015643 21 289 4.8 12.9 0.00 0.00 0.00 51 1013.7
20260902015147 21 326 4.8 12.9 0.00 0.00 0.00 50 1013.7
20260902014643 21 233 4.8 12.9 0.00 0.00 0.00 50 1013.6
20260902014143 21 295 3.2 11.3 0.00 0.00 0.00 50 1013.6
20260902013644 21 33 3.2 11.3 0.00 0.00 0.00 49 1013.6
20260902013144 21 322 3.2 11.3 0.00 0.00 0.00 50 1013.6
20260902012643 21 353 4.8 14.5 0.00 0.00 0.00 50 1013.6
20260902012141 21 312 4.8 14.5 0.00 0.00 0.00 50 1013.6
20260902011641 22 308 4.8 12.9 0.00 0.00 0.00 49 1013.5
20260902011138 22 320 4.8 12.9 0.00 0.00 0.00 49 1013.6
20260902010637 22 350 4.8 12.9 0.00 0.00 0.00 49 1013.6
20260902010139 22 10 6.4 16.1 0.00 0.00 0.00 48 1013.5
20260902005135 22 322 4.8 12.9 0.00 0.00 0.00 47 1013.4
20260902004635 22 338 4.8 17.7 0.00 0.00 0.00 46 1013.4
20260902004139 23 347 4.8 17.7 0.00 0.00 0.00 45 1013.4
20260902003635 23 117 4.8 14.5 0.00 0.00 0.00 45 1013.3
20260902003139 23 330 4.8 14.5 0.00 0.00 0.00 45 1013.4
20260902002635 23 326 4.8 14.5 0.00 0.00 0.00 45 1013.3
20260902002135 23 297 4.8 14.5 0.00 0.00 0.00 45 1013.4
20260902001635 23 211 4.8 12.9 0.00 0.00 0.00 44 1013.2
20260902001135 23 307 4.8 14.5 0.00 0.00 0.00 44 1013.2
20260902000636 23 186 3.2 14.5 0.00 0.00 0.00 44 1013.1
20260902000136 23 342 4.8 12.9 0.00 0.00 0.00 43 1013.1
20260901235635 23 287 6.4 16.1 0.00 0.00 0.00 45 1013.2
20260901235132 23 308 6.4 16.1 0.00 0.00 0.00 45 1013.1
20260901234633 24 316 6.4 14.5 0.00 0.00 0.00 44 1013.2
20260901234137 24 321 4.8 14.5 0.00 0.00 0.00 44 1013.1
20260901233634 24 335 4.8 12.9 0.00 0.00 0.00 44 1013.2
20260901233133 24 306 6.4 17.7 0.00 0.00 0.00 43 1013.2
20260901232133 25 317 3.2 9.7 0.00 0.00 0.00 41 1013.3
20260901231633 25 226 1.6 9.7 0.00 0.00 0.00 41 1013.3
20260901231133 24 300 3.2 11.3 0.00 0.00 0.00 42 1013.3
20260901230633 24 0 3.2 14.5 0.00 0.00 0.00 41 1013.3
20260901230133 24 355 4.8 14.5 0.00 0.00 0.00 42 1013.3
20260901225633 24 319 3.2 11.3 0.00 0.00 0.00 43 1013.4
20260901225134 24 160 3.2 9.7 0.00 0.00 0.00 41 1013.5
20260901224633 24 319 3.2 9.7 0.00 0.00 0.00 42 1013.5
20260901224133 24 315 3.2 9.7 0.00 0.00 0.00 41 1013.5
20260901222633 24 319 4.8 12.9 0.00 0.00 0.00 43 1013.6
20260901222134 23 344 4.8 12.9 0.00 0.00 0.00 43 1013.7
20260901221633 23 186 6.4 16.1 0.00 0.00 0.00 44 1013.8
20260901221130 23 15 4.8 16.1 0.00 0.00 0.00 45 1013.8
20260901220634 23 2 3.2 11.3 0.00 0.00 0.00 45 1013.9
20260901220131 23 139 3.2 12.9 0.00 0.00 0.00 45 1014.0
20260901215633 23 340 3.2 12.9 0.00 0.00 0.00 44 1014.0
20260901215135 23 320 1.6 6.4 0.00 0.00 0.00 44 1014.0
20260901214631 23 305 3.2 14.5 0.00 0.00 0.00 43 1014.0
20260901214131 23 216 4.8 14.5 0.00 0.00 0.00 44 1013.9
20260901213632 23 337 3.2 12.9 0.00 0.00 0.00 44 1013.9
20260901213134 23 7 3.2 12.9 0.00 0.00 0.00 44 1013.9
20260901212631 23 312 3.2 12.9 0.00 0.00 0.00 44 1014.0
20260901212132 23 204 3.2 9.7 0.00 0.00 0.00 44 1013.9
20260901211132 23 199 3.2 8.0 0.00 0.00 0.00 42 1013.9
20260901210131 23 161 1.6 8.0 0.00 0.00 0.00 42 1014.0
20260901205631 23 0 1.6 8.0 0.00 0.00 0.00 42 1014.0
20260901205129 23 248 1.6 8.0 0.00 0.00 0.00 42 1014.1
20260901204626 23 252 3.2 11.3 0.00 0.00 0.00 44 1014.1
20260901204126 22 303 3.2 11.3 0.00 0.00 0.00 43 1014.2
20260901203626 22 322 4.8 11.3 0.00 0.00 0.00 45 1014.2
20260901203126 23 316 4.8 11.3 0.00 0.00 0.00 44 1014.3
20260901202625 23 325 3.2 11.3 0.00 0.00 0.00 43 1014.3
20260901202129 23 330 3.2 8.0 0.00 0.00 0.00 42 1014.4
20260901201626 22 0 3.2 8.0 0.00 0.00 0.00 46 1014.5
20260901201124 23 89 3.2 12.9 0.00 0.00 0.00 44 1014.4
20260901200623 23 341 3.2 12.9 0.00 0.00 0.00 43 1014.5
20260901200123 23 162 3.2 9.7 0.00 0.00 0.00 45 1014.5
20260901195124 22 296 3.2 9.7 0.00 0.00 0.00 45 1014.6
20260901193621 23 172 3.2 11.3 0.00 0.00 0.00 45 1014.7
20260901193122 23 322 4.8 11.3 0.00 0.00 0.00 44 1014.8
20260901192622 22 349 3.2 11.3 0.00 0.00 0.00 46 1014.8
20260901192122 22 307 3.2 8.0 0.00 0.00 0.00 46 1014.9
20260901191622 22 315 1.6 6.4 0.00 0.00 0.00 46 1014.9
20260901191122 22 311 1.6 8.0 0.00 0.00 0.00 45 1015.0
20260901190623 22 334 3.2 8.0 0.00 0.00 0.00 44 1015.0
20260901190124 22 19 4.8 9.7 0.00 0.00 0.00 45 1015.1
20260901185614 22 22 4.8 9.7 0.00 0.00 0.00 45 1015.1
20260901185110 22 177 3.2 6.4 0.00 0.00 0.00 45 1015.1
20260901184555 22 315 3.2 8.0 0.00 0.00 0.00 45 1015.1
20260901184045 22 30 3.2 11.3 0.00 0.00 0.00 45 1015.1
20260901183543 22 315 3.2 11.3 0.00 0.00 0.00 45 1015.1
20260901183042 22 137 4.8 9.7 0.00 0.00 0.00 46 1015.1
20260901182543 22 144 3.2 9.7 0.00 0.00 0.00 45 1015.1
20260901182039 22 0 4.8 14.5 0.00 0.00 0.00 45 1015.1
20260901181524 21 169 4.8 14.5 0.00 0.00 0.00 47 1015.1
20260901181023 21 319 3.2 9.7 0.00 0.00 0.00 47 1015.0
20260901180524 21 324 3.2 9.7 0.00 0.00 0.00 48 1015.1
20260901180024 21 347 3.2 6.4 0.00 0.00 0.00 49 1015.1
20260901175524 21 309 1.6 6.4 0.00 0.00 0.00 49 1015.1
20260901175028 21 0 3.2 6.4 0.00 0.00 0.00 53 1015.1
20260901174528 21 28 3.2 6.4 0.00 0.00 0.00 52 1015.1
20260901173528 21 213 3.2 6.4 0.00 0.00 0.00 53 1015.0
20260901173023 21 194 1.6 4.8 0.00 0.00 0.00 48 1015.0
20260901172523 20 167 1.6 4.8 0.00 0.00 0.00 50 1014.9
20260901172023 20 148 1.6 4.8 0.00 0.00 0.00 50 1014.9
20260901171522 20 329 1.6 9.7 0.00 0.00 0.00 52 1015.0
20260901171023 20 357 3.2 9.7 0.00 0.00 0.00 52 1015.0
20260901170525 19 319 3.2 8.0 0.00 0.00 0.00 52 1015.0
20260901170027 19 326 3.2 6.4 0.00 0.00 0.00 54 1015.0
20260901165524 18 341 3.2 6.4 0.00 0.00 0.00 59 1015.0
20260901165025 18 98 3.2 6.4 0.00 0.00 0.00 61 1015.1
20260901164025 18 94 3.2 4.8 0.00 0.00 0.00 63 1015.0
20260901163523 18 27 4.8 9.7 0.00 0.00 0.00 64 1015.0
20260901163017 18 77 6.4 12.9 0.00 0.00 0.00 63 1015.0
20260901162513 17 116 6.4 12.9 0.00 0.00 0.00 64 1015.0
20260901162016 17 89 4.8 8.0 0.00 0.00 0.00 65 1014.9
20260901161010 17 65 4.8 8.0 0.00 0.00 0.00 66 1014.8
20260901160511 17 102 4.8 8.0 0.00 0.00 0.00 67 1014.8
20260901160010 17 81 4.8 6.4 0.00 0.00 0.00 68 1014.7
20260901155510 17 84 4.8 6.4 0.00 0.00 0.00 68 1014.7
20260901155011 16 114 4.8 8.0 0.00 0.00 0.00 68 1014.6
20260901154511 16 83 4.8 9.7 0.00 0.00 0.00 68 1014.6
20260901154001 16 138 4.8 9.7 0.00 0.00 0.00 68 1014.6
20260901153502 16 133 6.4 9.7 0.00 0.00 0.00 70 1014.6
20260901153005 16 152 6.4 9.7 0.00 0.00 0.00 70 1014.5
20260901152457 16 123 6.4 9.7 0.00 0.00 0.00 71 1014.5
20260901151957 16 122 4.8 9.7 0.00 0.00 0.00 71 1014.5
20260901151457 15 124 4.8 9.7 0.00 0.00 0.00 71 1014.5
20260901150949 15 112 4.8 9.7 0.00 0.00 0.00 71 1014.4
20260901145944 15 115 4.8 8.0 0.00 0.00 0.00 73 1014.3
20260901145441 15 140 4.8 8.0 0.00 0.00 0.00 73 1014.2
20260901144941 14 133 4.8 9.7 0.00 0.00 0.00 74 1014.1
20260901144436 14 69 4.8 9.7 0.00 0.00 0.00 74 1014.1
20260901143932 14 108 4.8 9.7 0.00 0.00 0.00 72 1014.0
20260901143427 14 133 4.8 9.7 0.00 0.00 0.00 70 1014.0
20260901142927 13 127 4.8 8.0 0.00 0.00 0.00 70 1014.0
20260901141927 13 112 3.2 6.4 0.00 0.00 0.00 73 1013.8
20260901141426 13 103 3.2 6.4 0.00 0.00 0.00 74 1013.7
20260901140927 13 118 4.8 8.0 0.00 0.00 0.00 74 1013.6
20260901140428 14 100 4.8 8.0 0.00 0.00 0.00 74 1013.6
20260901135934 14 123 3.2 8.0 0.00 0.00 0.00 73 1013.5
20260901135425 15 128 3.2 6.4 0.00 0.00 0.00 72 1013.4
20260901134928 15 79 3.2 6.4 0.00 0.00 0.00 71 1013.3
20260901134429 15 113 1.6 6.4 0.00 0.00 0.00 70 1013.2
20260901133925 15 82 1.6 4.8 0.00 0.00 0.00 70 1013.2
20260901133425 15 0 0.0 4.8 0.00 0.00 0.00 71 1013.1
20260901132925 14 7 0.0 4.8 0.00 0.00 0.00 71 1013.0
20260901132425 14 2 1.6 4.8 0.00 0.00 0.00 71 1013.0
20260901131925 14 341 1.6 4.8 0.00 0.00 0.00 72 1012.9
20260901131426 14 336 0.0 3.2 0.00 0.00 0.00 74 1013.0
20260901130925 14 32 0.0 3.2 0.00 0.00 0.00 75 1012.9
20260901130425 14 21 0.0 3.2 0.00 0.00 0.00 75 1012.9
20260901125929 14 140 0.0 3.2 0.00 0.00 0.00 73 1012.9
20260901125426 14 0 0.0 3.2 0.00 0.00 0.00 71 1012.9
20260901124925 14 0 0.0 3.2 0.00 0.00 0.00 71 1012.9
20260901124429 15 0 0.0 1.6 0.00 0.00 0.00 70 1012.9
20260901123926 15 0 0.0 1.6 0.00 0.00 0.00 70 1012.8
20260901123424 15 0 0.0 1.6 0.00 0.00 0.00 70 1012.9
20260901122924 15 0 0.0 4.8 0.00 0.00 0.00 70 1012.9
20260901122428 15 0 0.0 4.8 0.00 0.00 0.00 69 1012.7
20260901121925 15 0 0.0 4.8 0.00 0.00 0.00 69 1012.8
20260901121425 15 0 0.0 3.2 0.00 0.00 0.00 69 1012.8
20260901120924 15 0 0.0 3.2 0.00 0.00 0.00 69 1012.8
20260901120425 15 0 0.0 3.2 0.00 0.00 0.00 70 1012.9
20260901115425 15 0 1.6 4.8 0.00 0.00 0.00 70 1012.9
20260901114923 15 327 0.0 4.8 0.00 0.00 0.00 71 1012.9
20260901113923 14 328 0.0 3.2 0.00 0.00 0.00 72 1012.8
20260901113423 14 348 0.0 3.2 0.00 0.00 0.00 73 1012.8
20260901112920 13 0 0.0 3.2 0.00 0.00 0.00 74 1012.7
20260901112420 13 0 0.0 3.2 0.00 0.00 0.00 75 1012.5
20260901111920 13 271 0.0 4.8 0.00 0.00 0.00 77 1012.5
20260901111420 13 0 0.0 4.8 0.00 0.00 0.00 77 1012.4
20260901110920 13 0 0.0 4.8 0.00 0.00 0.00 79 1012.4
20260901110417 13 101 0.0 3.2 0.00 0.00 0.00 79 1012.4
20260901105917 13 23 0.0 3.2 0.00 0.00 0.00 79 1012.5
20260901105417 13 0 1.6 3.2 0.00 0.00 0.00 79 1012.4
20260901104918 13 309 0.0 3.2 0.00 0.00 0.00 80 1012.5
20260901104417 13 0 0.0 3.2 0.00 0.00 0.00 79 1012.5
20260901103920 14 0 0.0 3.2 0.00 0.00 0.00 79 1012.4
20260901103421 14 0 0.0 1.6 0.00 0.00 0.00 77 1012.4
20260901102917 14 0 0.0 1.6 0.00 0.00 0.00 76 1012.4
20260901102417 14 0 0.0 3.2 0.00 0.00 0.00 77 1012.3
20260901101921 15 0 1.6 3.2 0.00 0.00 0.00 77 1012.3
20260901101418 15 94 1.6 4.8 0.00 0.00 0.00 77 1012.2
20260901100921 15 70 3.2 4.8 0.00 0.00 0.00 77 1012.2
20260901100418 15 76 3.2 6.4 0.00 0.00 0.00 77 1012.1
20260901095915 15 64 3.2 6.4 0.00 0.00 0.00 77 1012.1
20260901095415 15 64 1.6 3.2 0.00 0.00 0.00 76 1012.2
20260901094915 15 31 3.2 6.4 0.00 0.00 0.00 77 1012.2
20260901094422 15 62 4.8 6.4 0.00 0.00 0.00 76 1012.1
20260901093915 15 89 4.8 6.4 0.00 0.00 0.00 75 1012.1
20260901093415 15 96 3.2 4.8 0.00 0.00 0.00 73 1012.1
20260901092916 15 103 1.6 4.8 0.00 0.00 0.00 69 1012.0
20260901092416 16 18 1.6 4.8 0.00 0.00 0.00 68 1011.9
20260901091915 16 0 1.6 6.4 0.00 0.00 0.00 67 1011.9
20260901091415 15 124 1.6 6.4 0.00 0.00 0.00 67 1011.8
20260901090919 15 112 1.6 4.8 0.00 0.00 0.00 68 1011.9
20260901090415 15 141 0.0 4.8 0.00 0.00 0.00 69 1011.9
20260901085915 15 356 0.0 4.8 0.00 0.00 0.00 69 1011.9
20260901085415 15 149 0.0 3.2 0.00 0.00 0.00 71 1011.9
20260901084915 16 0 0.0 1.6 0.00 0.00 0.00 69 1012.0
20260901084415 16 0 0.0 3.2 0.00 0.00 0.00 68 1012.1
20260901083919 16 0 0.0 3.2 0.00 0.00 0.00 67 1012.0
20260901083415 16 0 0.0 8.0 0.00 0.00 0.00 68 1012.0
20260901082912 16 133 1.6 8.0 0.00 0.00 0.00 67 1011.9
20260901082412 16 231 1.6 6.4 0.00 0.00 0.00 67 1012.0
20260901081413 16 198 0.0 4.8 0.00 0.00 0.00 69 1012.0
20260901080910 16 202 0.0 3.2 0.00 0.00 0.00 69 1011.9
20260901080410 16 303 0.0 3.2 0.00 0.00 0.00 69 1012.0
20260901075909 16 0 1.6 6.4 0.00 0.00 0.00 69 1011.9
20260901075410 16 311 1.6 6.4 0.00 0.00 0.00 70 1011.9
20260901074910 16 15 1.6 6.4 0.00 0.00 0.00 70 1011.8
20260901074410 16 342 1.6 6.4 0.00 0.00 0.00 69 1011.9
20260901073911 16 348 3.2 9.7 0.00 0.00 0.00 69 1011.9
20260901073414 16 336 3.2 14.5 0.00 0.00 0.00 69 1011.9
20260901072914 16 206 4.8 14.5 0.00 0.00 0.00 70 1011.9
20260901072411 16 353 4.8 11.3 0.00 0.00 0.00 70 1011.7
20260901071911 16 164 4.8 9.7 0.00 0.00 0.00 70 1011.8
20260901071410 16 336 3.2 9.7 0.00 0.00 0.00 71 1011.8
20260901070408 16 336 4.8 12.9 0.00 0.00 0.00 71 1011.7
20260901065908 16 347 4.8 12.9 0.00 0.00 0.00 71 1011.8
20260901065408 16 311 4.8 12.9 0.00 0.00 0.00 71 1011.7
20260901064905 16 303 4.8 12.9 0.00 0.00 0.00 70 1011.8
20260901064406 16 299 4.8 14.5 0.00 0.00 0.00 70 1011.8
20260901063905 16 286 4.8 14.5 0.00 0.00 0.00 70 1011.8
20260901063404 16 292 4.8 14.5 0.00 0.00 0.00 70 1011.8
20260901062905 16 3 4.8 14.5 0.00 0.00 0.00 70 1011.9
20260901062408 16 330 4.8 14.5 0.00 0.00 0.00 70 1011.9
20260901061905 16 213 4.8 14.5 0.00 0.00 0.00 70 1011.8
20260901061405 16 318 4.8 11.3 0.00 0.00 0.00 70 1011.8
20260901060905 16 14 6.4 14.5 0.00 0.00 0.00 70 1011.7
20260901060406 16 314 6.4 14.5 0.00 0.00 0.00 71 1011.7
20260901055912 16 235 6.4 16.1 0.00 0.00 0.00 71 1011.7
20260901054909 16 321 4.8 16.1 0.00 0.00 0.00 70 1011.7
20260901054403 16 327 4.8 16.1 0.00 0.00 0.00 70 1011.6
20260901053903 16 295 4.8 11.3 0.00 0.00 0.00 70 1011.6
20260901053403 16 150 4.8 11.3 0.00 0.00 0.00 70 1011.6
20260901052903 16 324 4.8 14.5 0.00 0.00 0.00 70 1011.6
20260901052403 16 341 4.8 14.5 0.00 0.00 0.00 70 1011.6
20260901051903 16 9 4.8 14.5 0.00 0.00 0.00 70 1011.5
20260901051404 16 354 4.8 14.5 0.00 0.00 0.00 70 1011.4
20260901050904 17 339 4.8 11.3 0.00 0.00 0.00 69 1011.4
20260901050405 17 299 4.8 12.9 0.00 0.00 0.00 69 1011.4
20260901045908 17 329 4.8 12.9 0.00 0.00 0.00 69 1011.4
20260901044905 17 294 6.4 16.1 0.00 0.00 0.00 68 1011.3
20260901044408 17 156 6.4 14.5 0.00 0.00 0.00 68 1011.3
20260901043904 17 175 4.8 14.5 0.00 0.00 0.00 69 1011.3
20260901043405 17 320 6.4 14.5 0.00 0.00 0.00 68 1011.4
20260901042905 17 358 6.4 14.5 0.00 0.00 0.00 68 1011.3
20260901042409 17 5 4.8 14.5 0.00 0.00 0.00 68 1011.2
20260901041406 17 306 3.2 12.9 0.00 0.00 0.00 68 1011.2
20260901040859 17 314 4.8 14.5 0.00 0.00 0.00 68 1011.1
20260901040358 17 326 4.8 14.5 0.00 0.00 0.00 68 1011.1
20260901035901 17 352 4.8 14.5 0.00 0.00 0.00 68 1011.1
20260901035405 17 337 4.8 11.3 0.00 0.00 0.00 67 1011.0
20260901034858 17 339 4.8 11.3 0.00 0.00 0.00 66 1010.9